OneWeb SL0304

operational
NORAD ID: 49092 Int'l Des: 2021-075 Owner: ONEWEBN Country: UK Constellation: oneweb
LEOCIRCULARPOLARONEWEB_TYPE

OneWeb SL0304について

説明を読み込み中...

リアルタイム位置

3D地球を読み込み中...

次回通過

高度履歴

Altitude vs Time

uPlot chart will show altitude changes over time

軌道要素

1 49092U 21075T 26033.45757987 .00000022 00000-0 22950-4 0 9991
2 49092 87.9103 32.6342 0001987 89.7389 270.3970 13.17650276215838
Epoch: Feb 2, 2026 • Age: 17 hours

現在のステータス

高度 1205.5 km
速度 7.26 km/s
衛星直下点 78.62°N, 147.19°W
打ち上げ日 Aug 21, 2021
運用期間 4.4 years
タイプ internet

技術仕様

分類 Payload
質量 148.00 kg
乾燥質量 140.00 kg
総質量 148.00 kg
長さ 1.30 m
直径 1.00 m
スパン 5.00 m
形状 Trapezoid+2 pan
製造者 ONEWUS
バスタイプ ARROW
フェーズステータス In Orbit
所有者/国 ONEWEBN/UK

大規模コンステレーション

Loading constellations...